Location: Unspecified
(0.0000°N, 0.0000°E)
Time: 10:07:11
(UTC+00:00)

Courier 1B Rocket - Pass Details

Date: 30 May 2026
Orbit: 920 x 1201 km, 28.2° (Epoch: 9 June)

Event Time Altitude Azimuth Distance (km) Brightness Sun altitude
Rises 07:33:25 0° 323° (NW) 3,609 7.8 22.2°
Reaches altitude 10° 07:36:48 10° 339° (NNW) 2,632 7.4 22.9°
Maximum altitude 07:41:21 20° 26° (NNE) 1,961 7.6 24.0°
Drops below altitude 10° 07:45:50 10° 73° (ENE) 2,600 9.1 25.0°
Sets 07:49:07 0° 89° (E) 3,551 9.0 25.7°
